Location: Colombe
(47.6133°N, 6.2123°E)
Time: 14:44:11
(UTC+00:00)

Daily predictions for brighter satellites

Satellite Brightness Start Highest point End
(mag) Time Altitude Azimuth Time Altitude Azimuth Time Altitude Azimuth
Cosmos 2278 4.5 20:07:18 10° SW 20:12:55 59° WNW 20:18:33 10° NNE
Cosmos 676 Rocket 4.2 20:08:59 10° NNW 20:14:20 79° WSW 20:19:40 10° SSE
CENTAUR R/B 2.6 20:08:51 10° SSW 20:14:45 82° SE 20:21:54 10° NE
Meteor 1-21 4.3 20:09:10 10° S 20:14:48 69° E 20:20:24 10° NNE
Cosmos 1470 2.8 20:11:03 10° N 20:15:04 89° W 20:19:01 10° S
Cosmos 1954 Rocket 4.2 20:10:01 10° NNW 20:15:22 76° WSW 20:20:39 10° SSE
Ariane Rocket 3.9 20:13:37 10° S 20:18:32 48° W 20:23:29 10° NNW
Cosmos 1315 Rocket 3.0 20:21:22 10° NNW 20:25:31 80° W 20:29:37 10° S
Cosmos 1980 Rocket 3.7 20:20:47 10° SW 20:26:07 42° NW 20:31:27 10° NNE
Cosmos 1674 3.7 20:22:56 10° SSE 20:26:10 29° E 20:29:25 10° NNE
USA 81 4.1 20:21:30 10° N 20:26:47 71° E 20:32:01 10° SSE
Cosmos 2278 Rocket 4.5 20:26:30 10° N 20:29:18 14° NE 20:32:06 10° ENE
Okean 1 Rocket 3.4 20:25:12 10° NNW 20:29:33 66° W 20:33:53 10° S
Cosmos 1455 Rocket 3.6 20:28:25 10° N 20:32:43 45° ENE 20:36:54 10° SSE
Cosmos 1727 Rocket 4.1 20:28:45 10° S 20:35:01 70° E 20:41:16 10° NNE
USA 267 4.4 20:30:34 10° ENE 20:36:37 42° N 20:42:42 10° WNW
Meteor 2-20 Rocket 4.5 20:33:49 10° S 20:39:53 70° E 20:45:58 10° NNE
Cosmos 1726 3.2 20:38:08 10° NNW 20:41:36 42° W 20:45:02 10° SSW
Cosmos 1844 Rocket 3.1 20:36:52 10° NNW 20:42:28 55° ENE 20:47:39 12° SE
BREEZE-M DEB (TANK) 2.8 20:40:31 10° SW 20:42:52 40° SE 20:47:15 10° ENE
Cosmos 1758 3.6 20:39:53 10° NNW 20:43:51 67° W 20:47:47 10° S
Cosmos 2285 Rocket 4.3 20:38:24 10° SSW 20:44:51 78° WNW 20:51:20 10° NNE
Cosmos 1802 Rocket 4.4 20:44:18 10° N 20:50:25 52° ENE 20:55:59 13° SSE
Cosmos 292 Rocket 4.0 20:45:38 10° SSW 20:50:28 76° WNW 20:55:19 10° NNE
Cosmos 1908 3.5 20:47:24 10° N 20:51:15 56° ENE 20:54:25 14° SSE
Cosmos 1340 4.1 20:51:54 14° SE 20:54:01 22° E 20:56:58 10° NE
Lacrosse 5 rocket 2.2 20:51:24 10° S 20:54:19 22° SE 20:57:11 10° ENE
Cosmos 2263 Rocket 3.7 20:50:12 10° NW 20:55:07 31° WSW 21:00:01 10° SSW
SPOT 5 3.1 20:53:08 13° SSE 20:57:49 70° ENE 21:02:45 10° N
Cosmos 405 4.4 20:57:06 10° NNE 21:00:02 25° ENE 21:02:06 15° ESE
Cosmos 1707 3.8 20:56:21 10° SSW 21:00:05 45° WNW 21:03:51 10° N
Cosmos 1452 Rocket 3.6 20:56:52 10° SSW 21:02:09 83° WNW 21:07:28 10° NNE
In-Cosmos 22 4.3 21:02:36 10° SSW 21:07:52 72° WNW 21:13:11 10° N
Cosmos 1459 Rocket 3.9 21:03:04 10° N 21:09:09 85° E 21:14:34 13° S
Resurs 01 Rocket 3.7 21:06:11 10° SSW 21:09:41 23° W 21:13:14 10° NW
Terra 2.0 21:06:08 16° SSE 21:09:54 64° ENE 21:14:38 10° N
SPOT 1/Viking Rocket 4.4 21:05:42 10° S 21:10:37 46° W 21:15:35 10° NNW
Cosmos 1850 Rocket 4.3 21:06:10 10° NNW 21:11:27 65° WSW 21:15:54 14° S
Cosmos 1953 2.4 21:07:44 10° NNW 21:11:50 76° W 21:15:10 15° S
Lacrosse 5 3.0 21:08:00 10° WNW 21:12:27 31° SW 21:16:06 14° S
Cosmos 2333 Rocket 2.9 21:09:00 14° SSE 21:13:18 35° ESE 21:18:26 10° NE
Cosmos 1025 Rocket 3.1 21:10:01 14° S 21:13:46 63° E 21:18:06 10° NNE
CARTOSAT-1 4.0 21:10:58 12° S 21:14:53 58° W 21:19:10 10° NNW
Cosmos 1000 Rocket 4.5 21:11:13 10° S 21:17:23 85° E 21:23:33 10° N
NOSS 3-2 (C) 4.3 21:12:56 10° WSW 21:18:34 54° NW 21:25:07 10° NE
Geosat 4.4 21:15:06 15° S 21:19:12 55° WSW 21:24:10 10° NW
SL-14 R/B 3.8 21:17:35 19° SSE 21:20:09 45° E 21:24:02 10° NNE
FALCON 9 DEB 3.0 21:18:37 10° SW 21:22:00 61° SSE 21:25:23 10° ENE
Spot 2 Rocket 4.2 21:17:52 11° S 21:22:38 50° W 21:27:35 10° NNW
Cosmos 1975 Rocket 3.7 21:19:25 10° SSW 21:23:41 56° WNW 21:28:02 10° N
Cosmos 2061 Rocket 4.1 21:18:17 10° N 21:24:45 73° E 21:29:43 18° SSE
ATLAS 3B R/B 3.0 21:18:59 10° S 21:25:04 43° ESE 21:31:21 10° NE
Cosmos 1844 3.7 21:20:39 10° NNW 21:26:15 88° WSW 21:30:18 19° SSE
Cosmos 1331 Rocket 4.0 21:22:54 10° SSW 21:28:07 78° ESE 21:33:26 10° NNE
Cosmos 2219 Rocket 2.8 21:24:39 17° SSE 21:28:30 39° ESE 21:33:43 10° NE
Cosmos 1461 3.1 21:24:21 10° NW 21:28:32 62° WSW 21:30:58 23° SSE
ERS-1 Rocket 3.3 21:24:38 15° S 21:28:48 64° WSW 21:33:50 10° NNW
Cosmos 1626 2.1 21:27:13 16° S 21:30:05 87° W 21:33:49 10° N
Cosmos 1864 Rocket 4.5 21:24:57 10° N 21:31:11 77° E 21:35:46 19° SSE
Meteor 1-24 Rocket 4.2 21:30:57 20° SSE 21:34:09 40° E 21:39:13 10° NNE
Aureole 1 Rocket 4.2 21:28:56 10° NNW 21:34:38 69° WSW 21:40:17 17° S
Meteor 2-10 Rocket 4.4 21:29:58 10° N 21:34:42 36° ENE 21:37:47 19° SE
SL-8 R/B 3.7 21:34:04 10° WNW 21:38:49 62° SSW 21:41:58 21° SE
BREEZE-M DEB (TANK) 2.9 21:36:12 10° WNW 21:38:49 27° SW 21:39:08 26° SSW
Cosmos 2123 Rocket 4.0 21:34:02 14° S 21:39:30 80° E 21:45:51 10° N
BREEZE-M DEB (TANK) 1.9 21:37:57 10° SW 21:40:30 56° SSE 21:45:51 10° ENE
ATLAS CENTAUR R/B 1.6 21:39:22 10° NW 21:43:41 76° NE 21:46:25 23° SE
Cosmos 2237 Rocket 3.9 21:42:20 14° ESE 21:43:51 16° E 21:47:07 10° ENE
USA 215 3.4 21:38:27 10° ENE 21:44:46 48° SE 21:51:02 10° SSW
Cosmos 1302 Rocket 4.1 21:42:30 19° S 21:46:14 58° ESE 21:51:24 10° NNE
ARIANE 5 R/B 4.2 21:43:36 11° SSW 21:47:22 29° W 21:51:19 10° NW
Cosmos 1867 4.3 21:42:35 10° NNW 21:47:54 47° NE 21:52:15 15° ESE
SL-16 R/B 3.9 21:43:48 10° WSW 21:48:57 35° NW 21:54:08 10° NNE
Cosmos 2233 Rocket 4.1 21:42:51 10° N 21:49:00 67° ENE 21:53:01 23° SSE
Cosmos 2360 Rocket 2.6 21:44:33 10° SW 21:50:10 64° WNW 21:55:48 10° NNE
SL-24 R/B 4.3 21:45:43 10° N 21:50:37 81° E 21:53:44 22° S
Cosmos 2322 Rocket 3.6 21:46:18 10° WSW 21:51:40 41° NW 21:57:03 10° NNE
FALCON 9 DEB 4.4 21:53:44 22° E 21:53:44 22° E 21:55:16 10° ENE
Centaur D AC-29 4.1 21:38:47 10° WSW 21:55:40 20° SW 21:59:44 15° S
Cosmos 1455 3.8 21:57:56 10° NNE 22:01:08 24° ENE 22:02:38 19° ESE
Cosmos 389 Rocket 3.2 21:59:10 10° N 22:02:26 40° ENE 22:03:30 30° ESE
COSMOS 2428 2.8 22:01:02 21° S 22:04:53 60° ESE 22:10:33 10° NNE
CENTAUR R/B 4.5 22:00:30 10° W 22:06:16 34° NNW 22:13:03 10° NE
H-2A R/B 3.9 22:02:20 10° N 22:06:21 58° WNW 22:09:25 17° SSW
Cosmos 2322 3.6 22:02:41 13° SSW 22:07:51 88° ESE 22:13:33 10° NNE
Cosmos 1300 3.1 22:05:06 10° NNW 22:08:51 55° W 22:10:36 28° SSW
Cosmos 1606 Rocket 3.9 22:06:05 10° N 22:10:30 54° ENE 22:12:29 30° SE
ALOS 2 3.8 22:11:48 20° ESE 22:14:02 33° ENE 22:17:56 10° N
Cosmos 2278 Rocket 2.7 22:09:14 10° NNW 22:14:47 53° ENE 22:18:27 21° SE
SJ 16-02 4.2 22:15:14 10° NE 22:15:39 10° NE 22:16:03 10° NE
Cosmos 1486 Rocket 4.0 22:12:50 10° NNW 22:18:05 76° ENE 22:20:48 29° SSE
USA 267 3.5 22:12:39 10° ESE 22:19:08 73° NNE 22:25:41 10° NW
Cosmos 1346 Rocket 2.8 22:19:17 37° SSE 22:20:43 66° E 22:24:43 10° NNE
Cosmos 1844 Rocket 4.1 22:21:21 10° NW 22:26:01 27° WSW 22:29:19 16° SSW
SL-4 R/B 4.1 22:30:03 12° E 22:30:03 12° E 22:30:29 10° E
Meteor 2-5 Rocket 4.1 22:24:44 17° SSW 22:28:59 60° WNW 22:34:33 10° N
Cosmos 1340 4.3 22:26:35 13° SW 22:29:26 29° WNW 22:32:48 10° N
Cosmos 968 Rocket 3.6 22:26:03 10° NNW 22:31:08 66° WSW 22:33:31 31° S
Cosmos 1464 Rocket 4.4 22:26:32 10° N 22:32:46 55° ENE 22:36:22 26° SE
Lacrosse 5 rocket 1.6 22:29:35 10° WSW 22:33:09 55° NNW 22:36:41 10° NE
Cosmos 1992 Rocket 4.0 22:32:38 30° S 22:35:08 65° ESE 22:40:20 10° NNE
GEOS 3 Rocket 3.8 22:36:02 30° SSE 22:38:36 61° SW 22:43:54 10° NW
Cosmos 1184 Rocket 3.7 22:38:30 33° E 22:38:37 33° E 22:41:36 10° NNE
Cosmos 1607 4.2 22:37:00 10° NW 22:43:26 68° NE 22:47:53 20° SE
Meteor 2-1 Rocket 4.4 22:40:41 10° N 22:46:09 59° ENE 22:48:54 29° SE
Terra 4.0 22:45:02 10° SW 22:48:06 17° W 22:51:11 10° NW
Cosmos 1703 4.0 22:49:57 35° ESE 22:50:46 40° E 22:54:29 10° NNE
Cosmos 1980 3.8 22:50:46 32° S 22:53:16 58° ESE 22:58:51 10° NE
Cosmos 1441 Rocket 3.9 22:52:52 35° ESE 22:53:33 39° E 22:57:09 10° NNE
FALCON 9 DEB 2.7 22:56:14 67° SW 22:56:36 88° SSE 22:59:45 10° ENE
Cosmos 2333 Rocket 3.2 22:51:59 10° SW 22:57:28 44° NW 23:02:58 10° NNE
Cosmos 1943 Rocket 3.9 22:54:12 10° N 22:58:54 27° NE 23:03:32 10° ESE
Cosmos 2228 4.0 22:55:34 10° NNW 22:59:40 39° W 23:01:23 27° SW
BREEZE-M DEB (TANK) 2.7 22:57:05 10° SW 23:05:18 58° SSE 23:08:12 10° ENE
Cosmos 2034 Rocket 4.1 23:00:01 10° N 23:06:14 68° E 23:09:25 30° SSE
Okean 1-7 Rocket 3.7 23:06:13 41° SSE 23:07:39 66° E 23:12:04 10° NNE
Cosmos 2219 Rocket 3.4 23:07:07 10° WSW 23:12:26 40° NW 23:17:47 10° NNE
SAR-Lupe-2 3.6 23:11:27 10° NNE 23:15:01 61° ESE 23:15:31 54° SE
ATLAS 3B R/B 3.4 23:09:18 10° WSW 23:15:41 50° NW 23:22:20 10° NE
Cosmos 1503 Rocket 4.2 23:11:54 10° NNW 23:17:13 61° WSW 23:19:20 35° S
FALCON 9 DEB 3.6 23:16:35 16° W 23:18:53 53° NNW 23:21:56 10° ENE
FALCON 9 DEB 3.3 23:19:51 27° W 23:21:19 61° NNW 23:24:24 10° ENE
USA 32 4.4 23:16:34 10° N 23:21:44 55° E 23:24:07 30° SE
ATLAS CENTAUR R/B 3.5 23:19:25 10° WNW 23:22:07 16° WSW 23:22:33 16° WSW
SL-16 R/B 3.1 23:20:20 27° SE 23:22:11 34° ESE 23:27:14 10° NE
Cosmos 2058 Rocket 3.4 23:19:49 10° NNW 23:24:11 55° W 23:25:34 38° SSW
Cosmos 1812 Rocket 4.2 23:22:22 10° N 23:26:35 46° ENE 23:28:14 31° SE
Cosmos 2237 Rocket 2.1 23:24:08 29° SSW 23:27:07 86° WNW 23:32:48 10° NNE
USA 215 3.6 23:21:28 10° NE 23:27:57 67° NNW 23:34:25 10° WSW
FALCON 9 DEB 3.8 23:25:34 15° W 23:28:00 49° NNW 23:31:03 10° ENE
ATLAS CENTAUR R/B 3.5 23:25:37 31° SSW 23:28:31 63° SE 23:41:36 10° NE
Cosmos 1867 4.4 23:26:25 10° NW 23:31:23 36° WSW 23:32:53 30° SSW
Tsikada Rocket 4.1 23:28:42 31° SSE 23:31:41 66° E 23:37:49 10° NNE
Thor Agena Rocket 3.6 23:29:05 10° NNE 23:34:21 69° ESE 23:36:27 36° S
GP-B 3.3 23:31:10 10° N 23:35:35 60° E 23:37:02 39° SSE
Cosmos 1455 3.6 23:33:25 10° NNW 23:36:41 27° W 23:37:30 25° WSW
Cosmos 2369 Rocket 3.9 23:32:34 10° NNW 23:37:34 30° NE 23:42:31 10° ESE
Meteor 1-21 Rocket 4.5 23:39:34 29° SSW 23:42:26 63° WNW 23:48:07 10° N
Meteor 1-4 Rocket 2.3 23:40:57 10° NNW 23:44:27 77° W 23:44:51 65° SSW
Cosmos 724 4.5 23:39:25 10° NW 23:45:40 78° NE 23:50:00 20° SE
COSMOS 2428 4.4 23:44:38 10° WSW 23:49:34 29° NW 23:54:31 10° NNE
ALOS 2 3.8 23:49:12 25° WSW 23:50:21 29° W 23:54:11 10° NW
SJ 16-02 1.5 23:50:46 10° NNW 23:55:08 66° ENE 23:57:01 32° SE
